Hourly Weather Roundup
Issued by NWS Central Illinois

Home | Current Version | Previous Version | Text Only | Print | Product List | Glossary On
Versions: 1 2 3 4 5 6 7 8 9 10 11 12 13 14 15 16 17 18 19 20 21 22 23 24 25 26 27 28 29 30 31 32 33 34 35 36 37 38 39 40 41 42 43 44 45 46 47 48 49 50
000
NZUS43 KILX 010510
HWRILX

AREA WEATHER ROUNDUP
NATIONAL WEATHER SERVICE, LINCOLN IL
1200 AM CDT TUE SEP 01 2015


CITY           SKY/WX    TMP DP  RH WIND       PRES   REMARKS
BLOOMINGTON    CLEAR     75  73  93 S9        30.07S
CHAMPAIGN      CLEAR     72  68  87 S5        30.08R
DANVILLE       CLEAR     67  66  97 CALM      30.06R FOG
DECATUR        CLEAR     77  70  79 S8        30.06S
EFFINGHAM      CLEAR     72  67  84 SE3       30.09S
FLORA          CLEAR     69  67  92 CALM      30.08S
GALESBURG      PTCLDY    73  70  89 SE5       30.02S
JACKSONVILLE   CLEAR     79  73  82 S9        30.04R HX  82
LACON          CLEAR     74  70  87 S5        30.02S
LAWRENCEVILLE  MOCLDY    70  67  90 S3        30.09S
LITCHFIELD     CLEAR     73  69  89 S6        30.06S
$$


CITY           SKY/WX    TMP DP  RH WIND       PRES   REMARKS
LINCOLN        CLEAR     76  70  84 S6        30.05R
MACOMB         CLEAR     74  71  90 S6        30.04R
MATTOON        HAZE      75  67  76 S6        30.07R VSB 1/2
MT CARMEL AP   CLEAR     70  64  83 CALM      30.09S
OLNEY-NOBLE AP CLEAR     68  66  94 CALM      30.09R
PARIS          CLEAR     69  67  96 S3        30.09S
PEORIA         CLEAR     77  70  79 S7        30.04R
PONTIAC        PTCLDY    76  73  90 S5        30.06R
RANTOUL        PTCLDY    73  70  89 CALM      30.07S
ROBINSON       CLEAR     67  65  94 S3        30.10R
SPRINGFIELD    CLEAR     78  71  79 S10       30.04S HX  80
TAYLORVILLE    CLEAR     72  70  94 S6        30.06R
$$

...REGIONAL REPORTS...


CITY           SKY/WX    TMP DP  RH WIND       PRES   REMARKS
CHICAGO O`HARE CLEAR     72  68  87 SE6       30.04R
KANKAKEE       PTCLDY    70  69  95 CALM      30.07R
MOLINE         CLEAR     76  70  82 S8        30.00R
MOUNT STERLING CLEAR     73  71  93 S5        30.03R
MOUNT VERNON   PTCLDY    72  66  83 CALM      30.09S
PITTSFIELD     CLEAR     75  71  87 S3        30.04S
QUINCY         CLEAR     76  72  87 S7        30.02R
ROCKFORD       CLEAR     72  67  84 CALM      30.04S
$$


CITY           SKY/WX    TMP DP  RH WIND       PRES   REMARKS
BURLINGTON     CLEAR     76  73  91 S6        30.00R
CEDAR RAPIDS   CLEAR     73  73 100 S6        29.98R
DES MOINES     PTCLDY    75  70  84 S6        29.95S
KIRKSVILLE     CLEAR     74  68  81 S7        30.02R
OTTUMWA        CLEAR     72  69  90 S6        29.97R
ST LOUIS       PTCLDY    80  71  74 S6        30.06R HX  84
$$


CITY           SKY/WX    TMP DP  RH WIND       PRES   REMARKS
TERRE HAUTE    CLEAR     68  66  93 CALM      30.09R
EVANSVILLE     CLEAR     72  68  87 CALM      30.10R
INDIANAPOLIS   PTCLDY    74  67  78 S5        30.10R
LAFAYETTE      CLEAR     70  67  90 CALM      30.08R
MADISON        CLEAR     71  67  87 S3        30.01S
MILWAUKEE      PTCLDY    69  65  86 S6        30.04R
$$





USA.gov is the U.S. government's official web portal to all federal, state and local government web resources and services.